Regional Weather Roundup
Issued by NWS

Home | Current Version | Previous Version | Graphics & Text | Print | Product List | Glossary On
Versions: 1 2 3 4 5 6 7 8 9 10 11 12 13 14 15 16 17 18 19 20 21 22 23 24 25 26 27 28 29 30 31 32 33 34 35 36 37 38 39 40 41 42 43 44 45 46 47 48 49 50
000
ASUS43 KOAX 301102
RWRNE

WEATHER ROUNDUP FOR NEBRASKA
NATIONAL WEATHER SERVICE OMAHA NE
600 AM CDT SAT MAY 30 2015

NOTES: SATELLITE DATA IS BEING USED TO AUGMENT CLOUD COVER ABOVE
       12000 FEET.
       "FAIR" INDICATES FEW OR NO CLOUDS BELOW 12,000 FEET WITH NO
       SIGNIFICANT WEATHER AND/OR OBSTRUCTIONS TO VISIBILITY.

  * THESE STATIONS DO NOT REPORT WEATHER SUCH AS RAIN...SNOW OR FOG.

NEZ001>004-019>022-054>056-301200-
NEBRASKA PANHANDLE

CITY           SKY/WX    TMP DP  RH WIND       PRES   REMARKS
SCOTTSBLUFF    CLOUDY    47  45  93 E5        30.29F
ALLIANCE       FOG       38  38 100 E3        30.29S VSB 1/4
CHADRON        FOG       39  38  96 E5        30.31R VSB 1/2
SIDNEY         CLOUDY    46  44  93 CALM      30.31S
$$

NEZ057>060-069>072-079>082-301200-
SOUTHWEST NEBRASKA

CITY           SKY/WX    TMP DP  RH WIND       PRES   REMARKS
NORTH PLATTE   CLEAR     36  35  96 NW7       30.29S WCI  30
IMPERIAL       CLEAR     43  39  86 NW9       30.29F
MCCOOK         CLEAR     44  41  89 NW9       30.27S
$$

NEZ005>010-023>029-035>040-094-301200-
NORTH CENTRAL NEBRASKA

CITY           SKY/WX    TMP DP  RH WIND       PRES   REMARKS
VALENTINE      CLEAR     36  34  92 NW3       30.31R
BROKEN BOW     CLEAR     42  38  85 N8        30.26R
ORD            CLEAR     41  39  93 NW9       30.23S
$$

NEZ041-046>049-061>064-073>077-083>087-301200-
SOUTH CENTRAL NEBRASKA

CITY           SKY/WX    TMP DP  RH WIND       PRES   REMARKS
GRAND ISLAND   MOCLDY    47  42  83 N16       30.19F
HASTINGS       CLOUDY    49  41  74 N17       30.17F
KEARNEY *      PTCLDY    46  39  76 N17       30.20F
$$

NEZ011>018-030>034-042>045-301200-
NORTHEAST NEBRASKA

CITY           SKY/WX    TMP DP  RH WIND       PRES   REMARKS
NORFOLK        CLOUDY    48  43  82 N16       30.19R
COLUMBUS *     CLOUDY    48  39  71 N17       30.18S
TEKAMAH        CLOUDY    53  46  77 N18       30.14R
$$

NEZ050>053-065>068-078-088>093-301200-
SOUTHEAST NEBRASKA

CITY           SKY/WX    TMP DP  RH WIND       PRES   REMARKS
LINCOLN        CLOUDY    52  44  74 N15       30.14S
OMAHA EPPLEY   LGT RAIN  50  49  96 N14       30.11F FOG
FALLS CITY     CLOUDY    53  50  89 N13       30.06S
$$

NEZ044-045-051>053-067-301200-
OMAHA AREA

CITY           SKY/WX    TMP DP  RH WIND       PRES   REMARKS
OMAHA EPPLEY   LGT RAIN  50  49  96 N14       30.11F FOG
OFFUTT AFB     CLOUDY    51  47  86 N12G26    30.10S
$$


USA.gov is the U.S. government's official web portal to all federal, state and local government web resources and services.